Home   Weather   French Lick   Past weeks

Flag for USA Past Weather in French Lick, Indiana, USA — Yesterday and Last 2 Weeks

Now
41 °F

Low clouds.


Feels Like: 38 °F
Forecast: 35 / 46 °F
Wind: 5 mph from Northwest

Location: Huntingburg Airport

Current Time: Dec 6, 2016 at 11:08:39 am

Latest Report: Dec 6, 2016 at 10:35 am


Visibility: 7 mi

Pressure: 30.41 "Hg

Humidity: 93%

Dew Point: 39 °F

Location of French LickLocation

Past Weather in French Lick — Graph

°F

French Lick Temperature Yesterday

Maximum temperature yesterday: 43 °F (at 11:56 pm)
Minimum temperature yesterday: 36 °F (at 7:15 am)
Average temperature yesterday: 39 °F

High & Low Weather Summary for the Past Weeks

 TemperatureHumidityPressure
High63 °F (Nov 29, 3:35 pm)100% (Nov 23, 10:04 pm)30.45 "Hg (Nov 23, 10:04 pm)
Low24 °F (Dec 2, 5:56 am)38% (Nov 22, 3:15 pm)29.65 "Hg (Nov 29, 10:56 pm)
Average42 °F75%30.30 "Hg
* Reported Nov 21 9:15 am — Dec 6 9:56 am, French Lick, Weather by CustomWeather, © 2016

Note: Actual official high and low records may vary slightly from our data, if they occured in-between our weather recording intervals... More about our weather records

Advertising

French Lick Weather History for the Previous 24 Hours

Scroll right to see more
 ConditionsComfort  
Time TempWeatherWind HumidityBarometerVisibility
9:56 am
Tue, Dec 6
41 °FLight rain. Low clouds.6 mph96%29.76 "Hg7 mi
9:35 am41 °FLow clouds.6 mph93%30.41 "Hg7 mi
9:15 am41 °FLow clouds.8 mph93%30.41 "Hg6 mi
8:56 am41 °FLight rain. Fog.9 mph96%29.72 "Hg2 mi
8:35 am41 °FLow clouds.5 mph93%30.41 "Hg4 mi
8:15 am41 °FLow clouds.6 mph93%30.41 "Hg2 mi
7:56 am41 °FLight rain. Fog.7 mph100%29.73 "Hg4 mi
7:15 am41 °FMostly cloudy.6 mph100%30.41 "Hg4 mi
6:56 am41 °FLight rain. Fog.7 mph100%29.72 "Hg4 mi
6:35 am41 °FOvercast.9 mph100%30.41 "Hg4 mi
6:15 am43 °FLow clouds.5 mph93%30.41 "Hg4 mi
5:56 am41 °FLight rain. Fog.7 mph100%29.73 "Hg3 mi
5:35 am43 °FLow clouds.7 mph93%30.41 "Hg5 mi
5:15 am43 °FLow clouds.7 mph87%30.41 "Hg4 mi
4:56 am42 °FLight rain. Fog.8 mph92%29.74 "Hg4 mi
4:35 am43 °FLow clouds.6 mph87%30.41 "Hg5 mi
4:15 am43 °FLow clouds.7 mph87%30.41 "Hg5 mi
3:56 am41 °FLight rain. Fog.8 mph96%29.78 "Hg5 mi
3:35 am41 °FMostly cloudy.7 mph93%30.41 "Hg3 mi
3:15 am41 °FMostly cloudy.8 mph93%30.41 "Hg3 mi
2:56 am41 °FLight rain. Fog.7 mph96%29.81 "Hg2 mi
2:35 am41 °FMostly cloudy.7 mph93%30.41 "Hg3 mi
2:15 am43 °FMostly cloudy.6 mph87%30.41 "Hg9 mi
1:56 am43 °FLight rain. Mostly cloudy.6 mph79%29.83 "Hg10 mi
1:35 am43 °FMostly cloudy.7 mph81%30.41 "Hg10 mi
1:15 am45 °FMostly cloudy.8 mph71%30.41 "Hg10 mi
12:56 am43 °FPassing clouds.7 mph76%29.83 "Hg10 mi
12:35 am43 °FPassing clouds.7 mph76%30.41 "Hg10 mi
12:15 am43 °FClear.7 mph76%30.41 "Hg10 mi
11:56 pm
Mon, Dec 5
43 °FClear.7 mph76%29.86 "Hg10 mi
11:35 pm43 °FClear.10 mph76%30.41 "Hg10 mi
11:15 pm43 °FClear.9 mph76%30.41 "Hg10 mi
10:56 pm42 °FClear.9 mph79%29.89 "Hg10 mi
10:15 pm43 °FClear.9 mph76%30.41 "Hg10 mi
9:56 pm41 °FClear.12 mph80%29.92 "Hg10 mi
9:35 pm41 °FClear.10 mph81%30.41 "Hg10 mi
9:15 pm41 °FClear.9 mph81%30.41 "Hg10 mi
8:56 pm41 °FClear.7 mph80%29.96 "Hg10 mi
8:35 pm41 °FClear.7 mph76%30.42 "Hg10 mi
8:15 pm41 °FClear.7 mph76%30.42 "Hg10 mi
7:56 pm40 °FClear.7 mph80%29.97 "Hg10 mi
7:35 pm41 °FClear.7 mph76%30.42 "Hg10 mi
7:15 pm41 °FClear.8 mph76%30.42 "Hg10 mi
6:56 pm41 °FClear.7 mph76%29.99 "Hg10 mi
6:35 pm41 °FClear.6 mph76%30.42 "Hg10 mi
5:56 pm41 °FClear.7 mph76%30.01 "Hg10 mi
5:35 pm41 °FClear.7 mph81%30.42 "Hg10 mi
5:15 pm43 °FSunny.6 mph76%30.42 "Hg10 mi
4:56 pm42 °FSunny.7 mph76%30.03 "Hg10 mi
4:35 pm43 °FSunny.6 mph76%30.42 "Hg10 mi
4:15 pm43 °FSunny.8 mph76%30.42 "Hg10 mi
3:56 pm42 °FSunny.7 mph73%30.06 "Hg10 mi
3:35 pm43 °FSunny.9 mph71%30.42 "Hg10 mi
3:15 pm43 °FPassing clouds.7 mph71%30.42 "Hg10 mi
2:56 pm42 °FPassing clouds.9 mph73%30.07 "Hg10 mi
2:35 pm43 °FPassing clouds.9 mph71%30.42 "Hg10 mi
2:15 pm43 °FSunny.7 mph71%30.42 "Hg10 mi
1:56 pm42 °FPassing clouds.9 mph73%30.08 "Hg10 mi
1:35 pm43 °FPassing clouds.5 mph71%30.42 "Hg10 mi
1:15 pm43 °FScattered clouds.12 mph76%30.42 "Hg10 mi
12:56 pm41 °FPassing clouds.7 mph76%30.11 "Hg10 mi
12:35 pm41 °FOvercast.6 mph76%30.42 "Hg10 mi
12:15 pm39 °FOvercast.7 mph81%30.42 "Hg10 mi
11:56 am40 °FOvercast.9 mph80%30.14 "Hg10 mi
11:35 am39 °FOvercast.10 mph81%30.42 "Hg10 mi
11:15 am39 °FOvercast.7 mph81%30.42 "Hg10 mi
Weather by CustomWeather, © 2016

See weather overviewHow to use our weather pages